Flag for U.S.A. Weather past 2 weeks in Olympia, Washington, U.S.A.

Now
67 °F

Clear.


Feels Like: 67 °F
Forecast: 52 / 92 °F
Wind: 3 mph from Southeast

Location: Olympia Airport

Current Time: Jul 31, 2015 at 11:34:03 PM

Latest Report: Jul 31, 2015 at 10:54 PM


Visibility: 10 mi

Pressure: 29.99 "Hg

Humidity: 39%

Dew point: 41 °F

Location of OlympiaLocation

Historic Weather in Olympia — Graph

°F

Olympia temperature yesterday

Maximum temperature yesterday: 96 °F (at 4:54 PM)
Minimum temperature yesterday: 50 °F (at 5:54 AM)
Average temperature yesterday: 74 °F

Past Weeks' High & Low Weather Summary

 TemperatureHumidityPressure
High97 °F (Jul 31, 4:54 PM)97% (Jul 27, 2:54 AM)30.29 "Hg (Jul 27, 2:54 AM)
Low47 °F (Jul 27, 6:02 AM)14% (Jul 31, 6:54 PM)29.87 "Hg (Jul 22, 7:54 PM)
Average67 °F59%30.05 "Hg
* Reported Jul 16 9:54 PM — Jul 31 9:54 PM, Olympia, Weather by CustomWeather, © 2015

Note: Actual official high and low records may vary slightly from our data, if they occured in-between our weather recording intervals... More about our weather records

Advertising

Olympia weather history for previous 24 hours

 ConditionsComfort  
Time TempWeatherWind HumidityBarometerVisibility
9:54 PM
Fri, Jul 31
70 °FClear.3 mph35%29.98 "Hg10 mi
8:54 PM80 °FSunny.6 mph20%29.96 "Hg10 mi
7:54 PM88 °FSunny.6 mph16%29.96 "Hg10 mi
6:54 PM92 °FSunny.8 mph14%29.95 "Hg10 mi
5:54 PM94 °FSunny.9 mph19%29.96 "Hg10 mi
4:54 PM97 °FSunny.7 mph16%29.97 "Hg10 mi
3:54 PM96 °FSunny.8 mph15%29.99 "Hg10 mi
2:54 PM94 °FSunny.No wind15%30.02 "Hg10 mi
1:54 PM91 °FSunny.6 mph17%30.04 "Hg10 mi
12:54 PM89 °FSunny.3 mph25%30.05 "Hg10 mi
11:54 AM85 °FSunny.5 mph30%30.07 "Hg10 mi
10:54 AM79 °FSunny.No wind36%30.08 "Hg10 mi
9:54 AM75 °FSunny.5 mph43%30.09 "Hg10 mi
8:54 AM69 °FSunny.No wind53%30.10 "Hg10 mi
7:54 AM61 °FSunny.No wind70%30.10 "Hg10 mi
6:54 AM54 °FSunny.No wind83%30.09 "Hg10 mi
5:54 AM50 °FClear.No wind86%30.07 "Hg10 mi
4:54 AM52 °FClear.No wind83%30.06 "Hg10 mi
3:54 AM53 °FClear.No wind80%30.06 "Hg10 mi
2:54 AM55 °FClear.No wind77%30.05 "Hg10 mi
1:54 AM57 °FClear.No wind72%30.04 "Hg10 mi
12:54 AM59 °FClear.No wind69%30.04 "Hg10 mi
11:54 PM
Thu, Jul 30
62 °FClear.No wind62%30.03 "Hg10 mi
Weather by CustomWeather, © 2015

See weather overviewHow to use our weather pages